Regional Weather Roundup
Issued by NWS Wakefield, VA

Home | Current Version | Previous Version | Graphics & Text | Print | Product List | Glossary On
Versions: 1 2 3 4 5 6 7 8 9 10 11 12 13 14 15 16 17 18 19 20 21 22 23 24 25 26 27 28
000
ASUS41 KAKQ 270315
RWRAKQ

REGIONAL WEATHER ROUNDUP
NATIONAL WEATHER SERVICE WAKEFIELD VA
1100 PM EDT MON SEP 26 2016

Note: "fair" indicates few or no clouds below 12,000 feet with no
significant weather and/or obstructions to visibility. * = Denotes
station may not report precipitation (e.g., rain,snow,etc.),
thunder or fog.

VAZ042-051-052>054-056-270400-
NORTHERN VIRGINIA

CITY           SKY/WX    TMP DP  RH WIND       PRES   REMARKS
WASH NATIONAL  CLOUDY    66  64  93 SW8       30.00S
DULLES         LGT RAIN  64  62  93 S8        29.99F
FORT BELVOIR   CLOUDY    65  62  91 SE2       29.99S
QUANTICO       CLOUDY    67  63  87 SW7       30.00F
FREDERICKSBRG* CLOUDY    65  65 100 S6        29.99F
STAFFORD*      CLOUDY    64  64 100 CALM      30.04S
WARRENTON      CLOUDY    65  60  84 S3        29.99F
CULPEPER*      CLOUDY    65  65  98 CALM      30.01F
MANASSAS*      CLOUDY    64  64 100 S3        29.99F
LEESBURG*      CLOUDY    64  64 100 S8G17     29.99F
WINCHESTER     PTCLDY    64  63  94 S3        29.97S
FRONT ROYAL*   MOCLDY    64  63  94 S3        29.96F
LURAY*         CLOUDY   N/A N/A N/A SW8       29.99S
$$

VAZ048-049-060>072-079>083-270400-
CENTRAL AND SOUTH CENTRAL VIRGINIA

CITY           SKY/WX    TMP DP  RH WIND       PRES   REMARKS
RICHMOND       CLOUDY    67  63  87 S9        30.01F
CHESTERFIELD*  CLOUDY    68  54  60 S7        30.03F
PETERSBURG*    CLOUDY    70  65  84 S3        30.03F
HANOVER        CLOUDY    69  62  78 S5        30.03F
TAPPAHANNOCK*  CLOUDY    69  61  75 S3        30.02F
QUINTON*       CLOUDY    68  65  90 CALM      30.02F
CHARLOTTSVILLE CLOUDY    66  63  90 S6        30.00F
GORDONSVILLE*  NOT AVBL
ORANGE*          N/A     64  64 100 CALM      30.02F
LOUISA*        DRIZZLE   70  66  88 SW3       30.00F
BUMPASS*       CLOUDY    66  64  94 CALM      30.01F
FARMVILLE*     LGT RAIN  68  67  97 S3        30.00F
CREWE*         CLOUDY    66  66 100 S5        30.03F
FORT PICKETT*  CLOUDY    68  67  98 NW9       30.05R
CHASE CITY*    CLOUDY    68  66  94 CALM      30.03F
CLARKSVILLE*   CLOUDY    68  68 100 CALM      30.03F
SOUTH HILL*    CLOUDY    67  65  96 S3        30.09F
LAWRENCEVILLE* FAIR      68  65  90 CALM      30.03F
EMPORIA*       CLOUDY    68  64  88 CALM      30.04F
$$

VAZ088>098-270400-
SOUTHEAST VIRGINIA

CITY           SKY/WX    TMP DP  RH WIND       PRES   REMARKS
NORFOLK        CLOUDY    72  65  78 S10       30.03F
VIRGINIA BEACH MOCLDY    71  64  78 S6        30.03F
NORFOLK NAVAL  CLOUDY    74  65  73 S7        30.04F
WEST POINT*    CLOUDY    71  62  73 S3        30.03F
SALUDA*        CLOUDY    71  65  82 S5        30.01F
NEWPORT NEWS   CLOUDY    73  65  75 S10       30.02F
LANGLEY AFB    CLOUDY    73  66  78 SW8       30.02F
FORT EUSTIS    CLOUDY    72  66  79 VRB3      30.00F
WILLIAMSBURG*  CLEAR     73  66  78 S9        30.03F
HR EXEC AP*    CLOUDY    70  64  83 SW3       30.05F
FRANKLIN*      CLOUDY    70  65  85 S5        30.04S
US460-WAKEFLD  CLOUDY    70  63  78 S3        30.03F
$$

VAZ020-022-025-037-045-270400-
WEST CENTRAL AND SOUTHWEST VIRGINIA

CITY           SKY/WX    TMP DP  RH WIND       PRES   REMARKS
STAUNTON*      CLOUDY    63  62  95 CALM      30.03F
WAYNESBORO*    FAIR      63  61  96 CALM      30.01F
HOT SPRINGS VA RAIN      52  52 100 SW5       30.09S
LYNCHBURG      CLOUDY    66  65  96 CALM      30.03F
DANVILLE       PTCLDY    68  67  96 SW7       30.04S
SOUTH BOSTON*  MOCLDY    66  65  95 CALM      30.02F
MARTINSVILLE   CLOUDY    65  64  96 CALM      30.08R
ROANOKE        CLOUDY    67  66  97 S6        30.05S FOG
BLACKSBURG     CLOUDY    66  66 100 SE3       30.09F FOG
DUBLIN*        CLOUDY    66  65  97 SW5       30.07F
MARION*        CLOUDY    66  65  96 W7        30.11F FOG
HILLSVILLE*    PTCLDY    63  63 100 S5        30.09F
RICHLANDS*     MOCLDY    66  65  98 S3        30.09S
WISE*          CLOUDY    64  63  94 W5        30.11S
ABINGDON*      CLOUDY    68  67  97 NW3       30.08S
$$

MDZ021>025-VAZ099-100-270400-
SOUTHERN MARYLAND AND THE DELMARVA PENINSULA

CITY           SKY/WX    TMP DP  RH WIND       PRES   REMARKS
PATUXENT RIVER LGT RAIN  67  62  84 S5        30.00F
BAY BRIDGE APT LGT RAIN  66  64  94 MISG      29.97F
LEONARDTOWN      N/A     64  61  88 S3        30.01F
DOVER          CLOUDY    68  65  91 SE10      29.98F
GEORGETOWN     LGT RAIN  67  63  87 CALM      30.03F
EASTON         NOT AVBL
CAMBRIDGE      MOCLDY    63  63 100 SE3       30.00F
SALISBURY      CLOUDY    67  64  90 CALM      30.02F
OCEAN CITY     CLOUDY    75  67  76 SW8G18    30.02F
WALLOPS ISLAND RAIN      73  69  87 S10       30.03F FOG
ACCOMACK*      CLOUDY    72  65  78 S5        30.02F
$$

NCZ012>017-030>032-270400-
NORTH CENTRAL AND EASTERN NORTH CAROLINA

CITY           SKY/WX    TMP DP  RH WIND       PRES   REMARKS
ROANOKE RAPIDS CLOUDY    68  64  88 S3        30.04F
RALEIGH        CLOUDY    72  67  84 NW6       30.05S
ELIZABETH CITY CLOUDY    73  67  81 S5        30.05F
AHOSKIE*       PTCLDY    68  65  90 S5        30.04F
EDENTON*       MOCLDY    71  71 100 CALM      30.06F
CURRITUCK*     CLOUDY    72  67  83 CALM      30.06F
KILL DEVIL HLS CLOUDY    73  68  86 SE3       30.05F
MANTEO         MOCLDY    76  66  72 S8        30.06F
CAPE HATTERAS  MOCLDY    78  67  68 S15       30.06F
TARBORO*       CLOUDY    69  66  90 CALM      30.05F
GOLDSBORO      MOCLDY    71  70  98 SE2       30.03F
WASHINGTON     CLEAR     67  65  96 CALM      30.06S
GREENVILLE     PTCLDY    72  68  88 S5        30.06F
NEW BERN       CLEAR     73  67  81 CALM      30.06S
WILMINGTON     CLOUDY    70  68  93 NE3       30.03F
$$

VAZ048-270400-
ELSEWHERE

CITY           SKY/WX    TMP DP  RH WIND       PRES   REMARKS
HARRISBURG PA  CLOUDY    66  60  81 S7        29.95F
BALTIMORE      CLOUDY    64  60  87 CALM      29.99S
ANNAPOLIS      LGT RAIN  68  63  84 S8        29.98F
ANDREWS AFB    CLOUDY    64  61  92 S6        29.98S
PHILADELPHIA   CLOUDY    69  58  67 S9        30.00F
HENDERSON NC   CLOUDY    67  63  87 SW6       30.04S
GREENSBORO     HVY RAIN  68  68 100 S8        30.05F FOG
ROCKY MOUNT    MOCLDY    70  67  90 S5        30.04F
$$

VAZ100-270400-
MARINE

STATION/POSITION TIME  TEMP    WIND        PRES    WAVE   SWELL
                       AIR SEA DIR/SP/G            HT/PER HT/PER
                 (UTC) (F)     (DEG/KT/KT) (MB)    (FT/S) (FT/S)
BRANDYWINE LGT   0200   70     200/ 13/ 15   N/A
CAPE MAY NJ      0200   70 72  180/  5/  7 1016.7F
LEWES DE         0200   69 72  170/  2/  3 1017.0F
OCEAN-CITY-INLET 0200   73 73  200/ 11/ 16 1017.6F
WACHAPREAGUE VA  0200   73 74  210/  4/  8 1017.3F
THOMAS POINT MD  0300   70 74  190/ 24/ 27 1016.0F
GOOSES REEF MD   0200   73 74  210/ 14/ 16 1017.3S   2/ 3
COVE POINT MD    0200   71     220/ 12/ 15 1017.5F
SOLOMONS ISLAND  0200   72 75  220/  7/  9   N/A
BISHOPS HEAD MD  0200   72 70  170/  9/ 11 1017.2F
PINEY POINT MD   0200          180/  8/ 10   N/A
POTOMAC MD       0200   73 75  210/ 10/ 12 1016.0F   1/ 3
CAMBRIDGE MD     0200   68 75  120/  3/  3 1016.3S
LEWISETTA VA     0200   70 74  220/  6/  7 1016.4F
RAPPAHANNOCK LGT 0200          180/ 16/ 18 1017.5F
STINGRAY PT      0200   74 76  130/ 14/ 16 1017.0F   1/ 2
YORK RVR RNG VA  0200   74     190/  9/ 11 1016.6F
YORKTOWN VA      0200   72 76  190/  5/  6 1016.6F
JAMESTOWN VA     0200   72 77  180/  8/ 10   N/A     0
DOMINION TERM VA 0200   73     180/ 11/ 12 1017.1F
KIPTOPEKE VA     0200      76  180/ 14/ 15   N/A
CHES BAY BRIDGE  0200   74 76  150/ 10/ 13 1017.1F
CAPE HENRY VA    0200   72     170/  7/ 10   N/A
WILLOUBY STN VA  0200   74     200/ 10/ 12   N/A
CAPE HENRY BUOY  0212      76                N/A     3/ 4
1ST LANDING BUOY 0200   74 76  190/ 10/ 14 1017.2F   1/ 4
CAPE CHARLES BUO 0226      76                N/A     3/ 4
OFFSHORE WE BUOY 0221      75                N/A     3/ 9
64NM E OF VA BCH 0250   75 74  170/  8/ 10 1017.8F   4/ 5   3/ 5
DUCK PIER NC     0200   75 76  160/  7/  8 1017.5F
44056 DUCK FRF   0211      76                N/A     3/ 9
OREGON INLET NC  0200   76 77  160/  7/ 11 1018.1F
HATTERAS NC      0200   78 78  170/  6/ 11 1017.9F
DIAMOND SHLS NC  0250   79 84  150/ 16/ 19 1017.6F   4/ 8   2/ 8
CAPE LOOKOUT NC  0200   79     140/  7/  8 1017.6F
$$




USA.gov is the U.S. government's official web portal to all federal, state and local government web resources and services.